Platteville, WI

8:02 PM CDT on April 30, 2017 (GMT -0500)
Platteville Municipal

Weather History for KPVB - October, 2011

Change the Weather History Date:

Sunday, October 9, 2011

  Actual Average (KDBQ) Record (KDBQ)
Temperature  
Mean Temperature 64 °F -  
Max Temperature 77 °F 60 °F 85 °F (2010)
Min Temperature 51 °F 41 °F 25 °F (2000)
Degree Days  
Heating Degree Days 1    
Growing Degree Days 14 (Base 50)    
Moisture  
Dew Point 48 °F    
Average Humidity 57    
Maximum Humidity 82    
Minimum Humidity 34    
Precipitation  
Precipitation 0.00 in - - ()
Sea Level Pressure  
Sea Level Pressure 30.27 in    
Wind  
Wind Speed 6 mph (SE)    
Max Wind Speed 13 mph    
Max Gust Speed 18 mph    
Visibility 10 miles    
Events      
Averages and records for this station are not official NWS values.
T = Trace of Precipitation, MM = Missing Value Source: NWS Daily Summary

Daily Weather History Graph

Daily Weather History Graph

Search for Another Location

Airport or City:

Trip Planner

Search our weather history database for the weather conditions in past years. The results will help you decide how hot, cold, wet, or windy it might be!

Date:

Astronomy

Oct. 09, 2011 Rise Set
Actual Time 7:07 AM CDT 6:29 PM CDT
Civil Twilight 6:39 AM CDT 6:57 PM CDT
Nautical Twilight 6:06 AM CDT 7:30 PM CDT
Astronomical Twilight 5:33 AM CDT 8:03 PM CDT
Moon 5:08 PM CDT (10/9) 4:50 AM CDT (10/9)
Length of Visible Light 12h 18m
Length of Day
11h 22m
Waxing Gibbous, 95% of the Moon is Illuminated
Oct 9
Waxing Gibbous
Oct 11
Full
Oct 19
Last Quarter
Oct 26
New
Nov 2
First Quarter

Hourly Weather History & Observations

Time (CDT) Temp. Dew Point Humidity Pressure Visibility Wind Dir Wind Speed Gust Speed Precip Events Conditions
12:35 AM 60.8 °F 46.4 °F 59% 30.26 in 10.0 mi South 5.8 mph - N/A   Clear
12:55 AM 60.8 °F 46.4 °F 59% 30.26 in 10.0 mi Calm Calm - N/A   Clear
1:15 AM 59.0 °F 46.4 °F 63% 30.26 in 10.0 mi SE 5.8 mph - N/A   Clear
1:35 AM 59.0 °F 46.4 °F 63% 30.26 in 10.0 mi SSE 6.9 mph - N/A   Clear
1:55 AM 59.0 °F 46.4 °F 63% 30.27 in 10.0 mi SSE 9.2 mph - N/A   Clear
2:15 AM 59.0 °F 46.4 °F 63% 30.27 in 10.0 mi SSE 8.1 mph - N/A   Clear
2:35 AM 59.0 °F 46.4 °F 63% 30.27 in 10.0 mi SSE 6.9 mph - N/A   Clear
2:55 AM 59.0 °F 46.4 °F 63% 30.28 in 10.0 mi SSE 5.8 mph - N/A   Clear
3:15 AM 59.0 °F 46.4 °F 63% 30.28 in 10.0 mi SSE 6.9 mph - N/A   Clear
3:35 AM 59.0 °F 46.4 °F 63% 30.28 in 10.0 mi SSE 8.1 mph - N/A   Clear
3:55 AM 59.0 °F 48.2 °F 67% 30.28 in 10.0 mi SSE 8.1 mph - N/A   Clear
4:15 AM 55.4 °F 46.4 °F 72% 30.28 in 10.0 mi SE 5.8 mph - N/A   Clear
4:35 AM 55.4 °F 46.4 °F 72% 30.29 in 10.0 mi SE 4.6 mph - N/A   Clear
4:55 AM 51.8 °F 44.6 °F 76% 30.29 in 10.0 mi Calm Calm - N/A   Clear
5:15 AM 51.8 °F 46.4 °F 82% 30.30 in 10.0 mi East 4.6 mph - N/A   Clear
5:35 AM 51.8 °F 46.4 °F 82% 30.31 in 10.0 mi ESE 6.9 mph - N/A   Clear
5:55 AM 53.6 °F 46.4 °F 77% 30.31 in 10.0 mi SE 3.5 mph - N/A   Clear
6:15 AM 53.6 °F 46.4 °F 77% 30.31 in 10.0 mi SE 5.8 mph - N/A   Clear
6:55 AM 51.8 °F 46.4 °F 82% 30.32 in 10.0 mi Calm Calm - N/A   Clear
7:15 AM 51.8 °F 46.4 °F 82% 30.32 in 10.0 mi Calm Calm - N/A   Clear
7:35 AM 53.6 °F 46.4 °F 77% 30.32 in 10.0 mi East 4.6 mph - N/A   Clear
7:55 AM 53.6 °F 48.2 °F 82% 30.33 in 10.0 mi East 3.5 mph - N/A   Clear
8:15 AM 55.4 °F 50.0 °F 82% 30.33 in 10.0 mi East 3.5 mph - N/A   Clear
8:35 AM 57.2 °F 50.0 °F 77% 30.33 in 10.0 mi ESE 4.6 mph - N/A   Clear
8:55 AM 60.8 °F 51.8 °F 72% 30.33 in 10.0 mi SE 4.6 mph - N/A   Clear
9:15 AM 62.6 °F 51.8 °F 68% 30.33 in 10.0 mi SSE 6.9 mph - N/A   Clear
9:35 AM 64.4 °F 53.6 °F 68% 30.33 in 10.0 mi South 4.6 mph - N/A   Clear
10:15 AM 68.0 °F 53.6 °F 60% 30.34 in 10.0 mi South 9.2 mph - N/A   Clear
10:35 AM 69.8 °F 53.6 °F 56% 30.33 in 10.0 mi South 6.9 mph - N/A   Clear
10:55 AM 71.6 °F 53.6 °F 53% 30.33 in 10.0 mi South 8.1 mph - N/A   Clear
11:15 AM 71.6 °F 53.6 °F 53% 30.33 in 10.0 mi South 5.8 mph - N/A   Clear
11:35 AM 73.4 °F 53.6 °F 50% 30.33 in 10.0 mi South 4.6 mph - N/A   Clear
11:55 AM 73.4 °F 53.6 °F 50% 30.33 in 10.0 mi South 6.9 mph - N/A   Clear
12:15 PM 75.2 °F 53.6 °F 47% 30.32 in 10.0 mi SSW 6.9 mph - N/A   Clear
12:35 PM 77.0 °F 53.6 °F 44% 30.31 in 10.0 mi South 11.5 mph - N/A   Clear
12:55 PM 77.0 °F 51.8 °F 41% 30.29 in 10.0 mi SSW 9.2 mph - N/A   Clear
1:15 PM 77.0 °F 50.0 °F 39% 30.29 in 10.0 mi South 5.8 mph 9.2 mph N/A   Scattered Clouds
1:35 PM 77.0 °F 51.8 °F 41% 30.28 in 10.0 mi South 9.2 mph - N/A   Mostly Cloudy
1:55 PM 77.0 °F 51.8 °F 41% 30.27 in 10.0 mi South 8.1 mph 18.4 mph N/A   Scattered Clouds
2:15 PM 77.0 °F 51.8 °F 41% 30.26 in 10.0 mi ESE 8.1 mph - N/A   Scattered Clouds
2:35 PM 77.0 °F 50.0 °F 39% 30.25 in 10.0 mi SE 11.5 mph - N/A   Clear
2:55 PM 77.0 °F 50.0 °F 39% 30.25 in 10.0 mi SE 9.2 mph - N/A   Clear
3:15 PM 77.0 °F 46.4 °F 34% 30.24 in 10.0 mi SSE 12.7 mph 16.1 mph N/A   Clear
3:35 PM 77.0 °F 46.4 °F 34% 30.24 in 10.0 mi SE 10.4 mph - N/A   Clear
3:55 PM 77.0 °F 50.0 °F 39% 30.23 in 10.0 mi SE 10.4 mph - N/A   Clear
4:15 PM 77.0 °F 50.0 °F 39% 30.23 in 10.0 mi SE 10.4 mph - N/A   Clear
4:55 PM 77.0 °F 48.2 °F 36% 30.23 in 10.0 mi SSE 11.5 mph - N/A   Clear
5:15 PM 77.0 °F 48.2 °F 36% 30.22 in 10.0 mi SE 10.4 mph - N/A   Clear
5:35 PM 75.2 °F 48.2 °F 38% 30.22 in 10.0 mi SE 5.8 mph - N/A   Clear
5:55 PM 73.4 °F 46.4 °F 38% 30.22 in 10.0 mi SE 6.9 mph - N/A   Clear
6:15 PM 69.8 °F 46.4 °F 43% 30.22 in 10.0 mi SSE 5.8 mph - N/A   Clear
6:35 PM 68.0 °F 46.4 °F 46% 30.22 in 10.0 mi SE 4.6 mph - N/A   Clear
6:55 PM 68.0 °F 46.4 °F 46% 30.22 in 10.0 mi SE 4.6 mph - N/A   Clear
7:15 PM 68.0 °F 46.4 °F 46% 30.22 in 10.0 mi ESE 4.6 mph - N/A   Clear
7:35 PM 66.2 °F 46.4 °F 49% 30.22 in 10.0 mi ESE 4.6 mph - N/A   Clear
7:55 PM 64.4 °F 46.4 °F 52% 30.22 in 10.0 mi East 5.8 mph - N/A   Clear
8:15 PM 62.6 °F 46.4 °F 55% 30.22 in 10.0 mi ESE 6.9 mph - N/A   Clear
8:35 PM 62.6 °F 46.4 °F 55% 30.22 in 10.0 mi East 8.1 mph - N/A   Clear
9:15 PM 60.8 °F 44.6 °F 55% 30.22 in 10.0 mi East 8.1 mph - N/A   Clear
9:35 PM 60.8 °F 44.6 °F 55% 30.22 in 10.0 mi East 8.1 mph - N/A   Clear
10:15 PM 59.0 °F 44.6 °F 59% 30.22 in 10.0 mi East 8.1 mph - N/A   Clear
10:35 PM 59.0 °F 42.8 °F 55% 30.23 in 10.0 mi East 8.1 mph - N/A   Clear
10:55 PM 59.0 °F 44.6 °F 59% 30.23 in 10.0 mi East 8.1 mph - N/A   Clear
11:15 PM 59.0 °F 44.6 °F 59% 30.23 in 10.0 mi East 9.2 mph - N/A   Clear
11:35 PM 57.2 °F 44.6 °F 63% 30.22 in 10.0 mi East 9.2 mph - N/A   Clear
11:55 PM 55.4 °F 44.6 °F 67% 30.22 in 10.0 mi East 9.2 mph - N/A   Clear